Time,TemperatureF,DewpointF,PressureIn,WindDirection,WindDirectionDegrees,WindSpeedMPH,WindSpeedGustMPH,Humidity,HourlyPrecipIn,Conditions,Clouds,dailyrainin,SoftwareType,DateUTC
2013-09-26 00:02:00,63.4,37.9,29.55,NNE,23,0.0,1.6,39,0.00,,,0.00,WUHU216HW,2013-09-26 06:02:00,
2013-09-26 00:07:00,63.5,38.1,29.55,NNE,23,0.9,1.3,39,0.00,,,0.00,WUHU216HW,2013-09-26 06:07:00,
2013-09-26 00:12:00,63.4,38.6,29.55,NNE,23,2.5,2.5,40,0.00,,,0.00,WUHU216HW,2013-09-26 06:12:00,
2013-09-26 00:17:00,62.8,37.5,29.55,NNE,23,1.3,3.1,39,0.00,,,0.00,WUHU216HW,2013-09-26 06:17:00,
2013-09-26 00:22:00,62.6,37.3,29.55,NNE,23,0.2,3.1,39,0.00,,,0.00,WUHU216HW,2013-09-26 06:22:00,
2013-09-26 00:27:00,62.5,37.8,29.55,NNE,23,1.8,3.4,40,0.00,,,0.00,WUHU216HW,2013-09-26 06:27:00,
2013-09-26 00:32:00,62.3,37.6,29.55,NNE,23,1.6,3.4,40,0.00,,,0.00,WUHU216HW,2013-09-26 06:32:00,
2013-09-26 00:37:00,62.3,37.6,29.55,NNE,23,0.7,2.0,40,0.00,,,0.00,WUHU216HW,2013-09-26 06:37:00,
2013-09-26 00:42:00,62.3,37.6,29.55,NNE,23,0.9,2.0,40,0.00,,,0.00,WUHU216HW,2013-09-26 06:42:00,
2013-09-26 00:47:00,62.1,37.5,29.55,NNE,23,0.4,2.0,40,0.00,,,0.00,WUHU216HW,2013-09-26 06:47:00,
2013-09-26 00:52:00,62.3,38.3,29.55,NNE,23,0.9,1.1,41,0.00,,,0.00,WUHU216HW,2013-09-26 06:52:00,
2013-09-26 00:57:00,61.9,39.1,29.55,NNE,23,1.1,3.4,43,0.00,,,0.00,WUHU216HW,2013-09-26 06:57:00,
2013-09-26 01:02:00,61.6,38.2,29.55,NNE,23,0.0,3.4,42,0.00,,,0.00,WUHU216HW,2013-09-26 07:02:00,
2013-09-26 01:07:00,61.2,38.4,29.55,NNE,23,0.4,2.9,43,0.00,,,0.00,WUHU216HW,2013-09-26 07:07:00,
2013-09-26 01:12:00,60.8,38.7,29.56,NNE,23,2.0,2.9,44,0.00,,,0.00,WUHU216HW,2013-09-26 07:12:00,
2013-09-26 01:17:00,60.8,39.2,29.56,NNE,23,1.8,2.5,45,0.00,,,0.00,WUHU216HW,2013-09-26 07:17:00,
2013-09-26 01:22:00,60.3,38.2,29.56,NNE,23,1.8,2.2,44,0.00,,,0.00,WUHU216HW,2013-09-26 07:22:00,
2013-09-26 01:27:00,60.3,37.6,29.57,NNE,23,0.4,2.5,43,0.00,,,0.00,WUHU216HW,2013-09-26 07:27:00,
2013-09-26 01:32:00,60.1,37.4,29.57,NNE,23,0.4,2.5,43,0.00,,,0.00,WUHU216HW,2013-09-26 07:32:00,
2013-09-26 01:37:00,60.1,38.0,29.57,NNE,23,0.0,1.6,44,0.00,,,0.00,WUHU216HW,2013-09-26 07:37:00,
2013-09-26 01:42:00,60.1,38.6,29.57,NNE,23,1.3,1.6,45,0.00,,,0.00,WUHU216HW,2013-09-26 07:42:00,
2013-09-26 01:47:00,59.9,38.4,29.57,NNE,23,0.0,1.6,45,0.00,,,0.00,WUHU216HW,2013-09-26 07:47:00,
2013-09-26 01:52:00,59.8,38.3,29.57,NNE,23,0.0,1.6,45,0.00,,,0.00,WUHU216HW,2013-09-26 07:52:00,
2013-09-26 01:57:00,59.9,38.4,29.57,NNE,23,0.0,1.1,45,0.00,,,0.00,WUHU216HW,2013-09-26 07:57:00,
2013-09-26 02:02:00,59.8,38.3,29.58,NNE,23,1.1,1.6,45,0.00,,,0.00,WUHU216HW,2013-09-26 08:02:00,
2013-09-26 02:07:00,59.4,38.0,29.59,NNE,23,1.6,4.0,45,0.00,,,0.00,WUHU216HW,2013-09-26 08:07:00,
2013-09-26 02:12:00,59.4,39.1,29.59,NNE,23,1.8,4.5,47,0.00,,,0.00,WUHU216HW,2013-09-26 08:12:00,
2013-09-26 02:17:00,59.4,40.9,29.59,NNE,23,2.0,6.0,50,0.00,,,0.00,WUHU216HW,2013-09-26 08:17:00,
2013-09-26 02:22:00,59.4,41.8,29.60,NNE,23,4.0,6.0,52,0.00,,,0.00,WUHU216HW,2013-09-26 08:22:00,
2013-09-26 02:27:00,59.4,41.8,29.60,NNE,23,2.5,6.3,52,0.00,,,0.00,WUHU216HW,2013-09-26 08:27:00,
2013-09-26 02:32:00,59.2,41.6,29.61,NNE,23,2.5,6.3,52,0.00,,,0.00,WUHU216HW,2013-09-26 08:32:00,
2013-09-26 02:37:00,59.0,42.4,29.61,NNE,23,5.1,5.4,54,0.00,,,0.00,WUHU216HW,2013-09-26 08:37:00,
2013-09-26 02:42:00,58.9,42.2,29.61,NNE,23,3.4,7.4,54,0.00,,,0.00,WUHU216HW,2013-09-26 08:42:00,
2013-09-26 02:47:00,58.7,41.6,29.61,NNE,23,1.6,7.4,53,0.00,,,0.00,WUHU216HW,2013-09-26 08:47:00,
2013-09-26 02:52:00,58.5,41.9,29.62,NNE,23,4.0,7.4,54,0.00,,,0.00,WUHU216HW,2013-09-26 08:52:00,
2013-09-26 02:57:00,58.3,41.8,29.62,NNE,23,0.9,7.4,54,0.00,,,0.00,WUHU216HW,2013-09-26 08:57:00,
2013-09-26 03:02:00,58.0,41.4,29.62,NNE,23,1.1,4.7,54,0.00,,,0.00,WUHU216HW,2013-09-26 09:02:00,
2013-09-26 03:07:00,57.8,41.7,29.63,NNE,23,1.8,4.7,55,0.00,,,0.00,WUHU216HW,2013-09-26 09:07:00,
2013-09-26 03:12:00,57.6,41.0,29.64,NNE,23,3.4,4.5,54,0.00,,,0.00,WUHU216HW,2013-09-26 09:12:00,
2013-09-26 03:17:00,57.4,41.4,29.64,NNE,23,0.9,3.6,55,0.00,,,0.00,WUHU216HW,2013-09-26 09:17:00,
2013-09-26 03:22:00,57.2,41.2,29.64,NNE,23,1.1,5.4,55,0.00,,,0.00,WUHU216HW,2013-09-26 09:22:00,
2013-09-26 03:27:00,56.9,40.9,29.65,NNE,23,0.9,5.4,55,0.00,,,0.00,WUHU216HW,2013-09-26 09:27:00,
2013-09-26 03:32:00,56.7,40.7,29.65,NNE,23,1.8,4.0,55,0.00,,,0.00,WUHU216HW,2013-09-26 09:32:00,
2013-09-26 03:37:00,56.7,41.1,29.65,NNE,23,1.6,3.1,56,0.00,,,0.00,WUHU216HW,2013-09-26 09:37:00,
2013-09-26 03:42:00,56.5,41.0,29.66,NNE,23,1.8,3.6,56,0.00,,,0.00,WUHU216HW,2013-09-26 09:42:00,
2013-09-26 03:47:00,56.3,40.3,29.66,NNE,23,1.6,3.6,55,0.00,,,0.00,WUHU216HW,2013-09-26 09:47:00,
2013-09-26 03:52:00,56.0,40.4,29.66,NNE,23,0.0,2.2,56,0.00,,,0.00,WUHU216HW,2013-09-26 09:52:00,
2013-09-26 03:57:00,56.2,40.6,29.66,NNE,23,1.8,2.2,56,0.00,,,0.00,WUHU216HW,2013-09-26 09:57:00,
2013-09-26 04:02:00,56.2,40.1,29.67,NNE,23,0.0,2.0,55,0.00,,,0.00,WUHU216HW,2013-09-26 10:02:00,
2013-09-26 04:07:00,56.2,40.6,29.67,NNE,23,0.7,3.6,56,0.00,,,0.00,WUHU216HW,2013-09-26 10:07:00,
2013-09-26 04:12:00,56.0,40.4,29.67,NNE,23,0.4,3.6,56,0.00,,,0.00,WUHU216HW,2013-09-26 10:12:00,
2013-09-26 04:17:00,55.8,40.2,29.67,NNE,23,0.7,2.0,56,0.00,,,0.00,WUHU216HW,2013-09-26 10:17:00,
2013-09-26 04:22:00,55.8,40.2,29.68,NNE,23,0.7,2.0,56,0.00,,,0.00,WUHU216HW,2013-09-26 10:22:00,
2013-09-26 04:27:00,55.8,40.2,29.67,NNE,23,0.4,1.3,56,0.00,,,0.00,WUHU216HW,2013-09-26 10:27:00,
2013-09-26 04:32:00,55.8,40.2,29.68,NNE,23,0.4,1.6,56,0.00,,,0.00,WUHU216HW,2013-09-26 10:32:00,
2013-09-26 04:37:00,55.6,40.1,29.68,NNE,23,0.4,1.8,56,0.00,,,0.00,WUHU216HW,2013-09-26 10:37:00,
2013-09-26 04:42:00,55.4,39.9,29.68,NNE,23,0.2,1.8,56,0.00,,,0.00,WUHU216HW,2013-09-26 10:42:00,
2013-09-26 04:47:00,55.4,39.9,29.69,NNE,23,0.0,1.6,56,0.00,,,0.00,WUHU216HW,2013-09-26 10:47:00,
2013-09-26 04:52:00,55.4,39.9,29.69,NNE,23,0.2,1.1,56,0.00,,,0.00,WUHU216HW,2013-09-26 10:52:00,
2013-09-26 04:57:00,55.3,40.2,29.69,NNE,23,0.0,0.9,57,0.00,,,0.00,WUHU216HW,2013-09-26 10:57:00,
2013-09-26 05:02:00,55.3,40.2,29.70,NNE,23,1.1,1.1,57,0.00,,,0.00,WUHU216HW,2013-09-26 11:02:00,
2013-09-26 05:07:00,54.9,40.3,29.70,NNE,23,0.0,1.1,58,0.00,,,0.00,WUHU216HW,2013-09-26 11:07:00,
2013-09-26 05:12:00,54.5,40.1,29.70,NNE,23,0.0,0.4,58,0.00,,,0.00,WUHU216HW,2013-09-26 11:12:00,
2013-09-26 05:17:00,54.4,39.9,29.70,NNE,23,0.4,0.4,58,0.00,,,0.00,WUHU216HW,2013-09-26 11:17:00,
2013-09-26 05:22:00,54.0,40.0,29.70,NNE,23,0.2,0.4,59,0.00,,,0.00,WUHU216HW,2013-09-26 11:22:00,
2013-09-26 05:27:00,53.8,39.9,29.70,NNE,23,0.0,0.4,59,0.00,,,0.00,WUHU216HW,2013-09-26 11:27:00,
2013-09-26 05:32:00,53.6,39.7,29.70,NNE,23,0.0,0.4,59,0.00,,,0.00,WUHU216HW,2013-09-26 11:32:00,
2013-09-26 05:37:00,53.6,40.1,29.70,NNE,23,0.0,0.0,60,0.00,,,0.00,WUHU216HW,2013-09-26 11:37:00,
2013-09-26 05:42:00,53.5,40.0,29.70,NNE,23,0.0,0.0,60,0.00,,,0.00,WUHU216HW,2013-09-26 11:42:00,
2013-09-26 05:47:00,53.3,39.8,29.70,NNE,23,0.0,0.7,60,0.00,,,0.00,WUHU216HW,2013-09-26 11:47:00,
2013-09-26 05:52:00,53.1,40.0,29.71,NNE,23,0.0,0.7,61,0.00,,,0.00,WUHU216HW,2013-09-26 11:52:00,
2013-09-26 05:57:00,52.9,39.8,29.71,NNE,23,0.4,0.4,61,0.00,,,0.00,WUHU216HW,2013-09-26 11:57:00,
2013-09-26 06:02:00,52.7,39.6,29.71,NNE,23,0.0,0.4,61,0.00,,,0.00,WUHU216HW,2013-09-26 12:02:00,
2013-09-26 06:07:00,52.6,39.9,29.71,NNE,23,0.0,0.4,62,0.00,,,0.00,WUHU216HW,2013-09-26 12:07:00,
2013-09-26 06:12:00,52.4,39.7,29.71,NNE,23,0.0,0.0,62,0.00,,,0.00,WUHU216HW,2013-09-26 12:12:00,
2013-09-26 06:17:00,52.2,39.5,29.72,NNE,23,0.0,0.0,62,0.00,,,0.00,WUHU216HW,2013-09-26 12:17:00,
2013-09-26 06:22:00,52.0,39.8,29.72,NNE,23,0.0,0.0,63,0.00,,,0.00,WUHU216HW,2013-09-26 12:22:00,
2013-09-26 06:27:00,51.8,39.6,29.72,NNE,23,0.0,0.0,63,0.00,,,0.00,WUHU216HW,2013-09-26 12:27:00,
2013-09-26 06:32:00,51.5,39.7,29.72,NNE,23,0.0,0.0,64,0.00,,,0.00,WUHU216HW,2013-09-26 12:32:00,
2013-09-26 06:37:00,51.3,39.5,29.72,NNE,23,0.2,0.4,64,0.00,,,0.00,WUHU216HW,2013-09-26 12:37:00,
2013-09-26 06:42:00,50.9,39.2,29.72,NNE,23,0.0,0.4,64,0.00,,,0.00,WUHU216HW,2013-09-26 12:42:00,
2013-09-26 06:47:00,50.8,39.4,29.72,NNE,23,0.4,0.4,65,0.00,,,0.00,WUHU216HW,2013-09-26 12:47:00,
2013-09-26 06:52:00,50.8,39.4,29.73,NNE,23,0.0,0.4,65,0.00,,,0.00,WUHU216HW,2013-09-26 12:52:00,
2013-09-26 06:57:00,50.6,39.3,29.73,NNE,23,0.0,0.4,65,0.00,,,0.00,WUHU216HW,2013-09-26 12:57:00,
2013-09-26 07:02:00,50.6,39.6,29.73,NNE,23,0.0,0.0,66,0.00,,,0.00,WUHU216HW,2013-09-26 13:02:00,
2013-09-26 07:07:00,50.8,39.8,29.73,NNE,23,0.0,0.0,66,0.00,,,0.00,WUHU216HW,2013-09-26 13:07:00,
2013-09-26 07:12:00,51.7,40.2,29.73,NNE,23,0.0,0.0,65,0.00,,,0.00,WUHU216HW,2013-09-26 13:12:00,
2013-09-26 07:17:00,51.7,40.2,29.73,NNE,23,0.0,0.0,65,0.00,,,0.00,WUHU216HW,2013-09-26 13:17:00,
2013-09-26 07:22:00,51.3,39.9,29.73,NNE,23,0.0,0.0,65,0.00,,,0.00,WUHU216HW,2013-09-26 13:22:00,
2013-09-26 07:27:00,51.1,39.7,29.74,NNE,23,0.0,0.0,65,0.00,,,0.00,WUHU216HW,2013-09-26 13:27:00,
2013-09-26 07:32:00,50.9,40.0,29.74,NNE,23,0.0,0.0,66,0.00,,,0.00,WUHU216HW,2013-09-26 13:32:00,
2013-09-26 07:37:00,50.8,39.8,29.74,NNE,23,0.0,0.0,66,0.00,,,0.00,WUHU216HW,2013-09-26 13:37:00,
2013-09-26 07:42:00,50.8,40.2,29.74,NNE,23,0.0,0.0,67,0.00,,,0.00,WUHU216HW,2013-09-26 13:42:00,
2013-09-26 07:47:00,50.8,40.6,29.74,NNE,23,0.4,0.9,68,0.00,,,0.00,WUHU216HW,2013-09-26 13:47:00,
2013-09-26 07:52:00,50.8,40.6,29.74,NNE,23,0.4,1.1,68,0.00,,,0.00,WUHU216HW,2013-09-26 13:52:00,
2013-09-26 07:57:00,51.1,41.0,29.74,North,0,0.7,1.1,68,0.00,,,0.00,WUHU216HW,2013-09-26 13:57:00,
2013-09-26 08:02:00,51.7,41.5,29.74,North,0,0.7,0.7,68,0.00,,,0.00,WUHU216HW,2013-09-26 14:02:00,
2013-09-26 08:07:00,52.2,41.6,29.75,North,0,0.0,0.7,67,0.00,,,0.00,WUHU216HW,2013-09-26 14:07:00,
2013-09-26 08:12:00,52.4,41.3,29.74,North,0,0.0,0.4,66,0.00,,,0.00,WUHU216HW,2013-09-26 14:12:00,
2013-09-26 08:17:00,52.6,41.5,29.74,North,0,0.4,1.1,66,0.00,,,0.00,WUHU216HW,2013-09-26 14:17:00,
2013-09-26 08:22:00,52.9,41.9,29.74,North,0,0.0,1.1,66,0.00,,,0.00,WUHU216HW,2013-09-26 14:22:00,
2013-09-26 08:27:00,52.9,41.9,29.75,North,0,0.0,0.4,66,0.00,,,0.00,WUHU216HW,2013-09-26 14:27:00,
2013-09-26 08:32:00,53.3,42.6,29.75,North,0,0.2,0.4,67,0.00,,,0.00,WUHU216HW,2013-09-26 14:32:00,
2013-09-26 08:37:00,53.5,42.4,29.75,North,0,0.0,1.1,66,0.00,,,0.00,WUHU216HW,2013-09-26 14:37:00,
2013-09-26 08:42:00,53.8,42.3,29.75,NNE,23,2.2,3.4,65,0.00,,,0.00,WUHU216HW,2013-09-26 14:42:00,
2013-09-26 08:47:00,54.4,42.9,29.75,NNE,23,1.8,3.4,65,0.00,,,0.00,WUHU216HW,2013-09-26 14:47:00,
2013-09-26 08:52:00,54.4,42.9,29.75,NNE,23,0.9,2.0,65,0.00,,,0.00,WUHU216HW,2013-09-26 14:52:00,
2013-09-26 08:57:00,54.5,42.6,29.75,NNE,23,0.2,1.8,64,0.00,,,0.00,WUHU216HW,2013-09-26 14:57:00,
2013-09-26 09:02:00,54.7,42.8,29.75,NNE,23,0.4,4.3,64,0.00,,,0.00,WUHU216HW,2013-09-26 15:02:00,
2013-09-26 09:07:00,55.1,43.1,29.75,NNE,23,0.0,4.3,64,0.00,,,0.00,WUHU216HW,2013-09-26 15:07:00,
2013-09-26 09:12:00,55.4,43.0,29.75,NNE,23,0.7,2.2,63,0.00,,,0.00,WUHU216HW,2013-09-26 15:12:00,
2013-09-26 09:17:00,55.8,42.9,29.75,North,0,2.5,3.4,62,0.00,,,0.00,WUHU216HW,2013-09-26 15:17:00,
2013-09-26 09:22:00,56.2,42.9,29.75,North,0,0.0,3.4,61,0.00,,,0.00,WUHU216HW,2013-09-26 15:22:00,
2013-09-26 09:27:00,56.2,42.5,29.75,North,0,0.4,1.8,60,0.00,,,0.00,WUHU216HW,2013-09-26 15:27:00,
2013-09-26 09:32:00,56.5,42.8,29.75,NNE,23,0.7,3.6,60,0.00,,,0.00,WUHU216HW,2013-09-26 15:32:00,
2013-09-26 09:37:00,56.5,42.4,29.75,NNE,23,1.8,3.6,59,0.00,,,0.00,WUHU216HW,2013-09-26 15:37:00,
2013-09-26 09:42:00,56.7,42.6,29.75,NNE,23,0.4,1.8,59,0.00,,,0.00,WUHU216HW,2013-09-26 15:42:00,
2013-09-26 09:47:00,57.1,42.9,29.75,NNE,23,0.4,2.2,59,0.00,,,0.00,WUHU216HW,2013-09-26 15:47:00,
2013-09-26 09:52:00,57.2,43.1,29.75,NNE,23,4.3,4.3,59,0.00,,,0.00,WUHU216HW,2013-09-26 15:52:00,
2013-09-26 09:57:00,57.4,42.8,29.75,NNE,23,0.0,4.3,58,0.00,,,0.00,WUHU216HW,2013-09-26 15:57:00,
2013-09-26 10:02:00,57.8,43.1,29.74,NNE,23,1.8,2.0,58,0.00,,,0.00,WUHU216HW,2013-09-26 16:02:00,
2013-09-26 10:07:00,58.0,43.3,29.74,NNE,23,3.6,3.6,58,0.00,,,0.00,WUHU216HW,2013-09-26 16:07:00,
2013-09-26 10:12:00,58.1,43.5,29.74,North,0,1.8,3.6,58,0.00,,,0.00,WUHU216HW,2013-09-26 16:12:00,
2013-09-26 10:17:00,58.3,43.6,29.74,NNE,23,2.7,4.3,58,0.00,,,0.00,WUHU216HW,2013-09-26 16:17:00,
2013-09-26 10:22:00,58.7,43.5,29.74,NNE,23,2.2,4.3,57,0.00,,,0.00,WUHU216HW,2013-09-26 16:22:00,
2013-09-26 10:27:00,59.0,43.7,29.74,NNE,23,2.7,2.7,57,0.00,,,0.00,WUHU216HW,2013-09-26 16:27:00,
2013-09-26 10:32:00,59.4,43.7,29.74,NNE,23,1.1,2.7,56,0.00,,,0.00,WUHU216HW,2013-09-26 16:32:00,
2013-09-26 10:37:00,59.0,43.3,29.74,NNE,23,1.8,3.8,56,0.00,,,0.00,WUHU216HW,2013-09-26 16:37:00,
2013-09-26 10:42:00,59.4,43.7,29.74,NNE,23,4.5,5.4,56,0.00,,,0.00,WUHU216HW,2013-09-26 16:42:00,
2013-09-26 10:47:00,59.6,43.8,29.74,NNE,23,1.6,5.4,56,0.00,,,0.00,WUHU216HW,2013-09-26 16:47:00,
2013-09-26 10:52:00,60.1,44.4,29.74,NNE,23,0.9,2.9,56,0.00,,,0.00,WUHU216HW,2013-09-26 16:52:00,
2013-09-26 10:57:00,60.5,44.2,29.73,NNE,23,1.3,3.6,55,0.00,,,0.00,WUHU216HW,2013-09-26 16:57:00,
2013-09-26 11:02:00,60.8,44.1,29.73,NNE,23,4.0,4.7,54,0.00,,,0.00,WUHU216HW,2013-09-26 17:02:00,
2013-09-26 11:07:00,60.8,43.6,29.74,NNE,23,2.0,5.4,53,0.00,,,0.00,WUHU216HW,2013-09-26 17:07:00,
2013-09-26 11:12:00,60.7,43.4,29.74,NNE,23,2.5,5.4,53,0.00,,,0.00,WUHU216HW,2013-09-26 17:12:00,
2013-09-26 11:17:00,60.8,44.1,29.73,NNE,23,0.0,4.0,54,0.00,,,0.00,WUHU216HW,2013-09-26 17:17:00,
2013-09-26 11:22:00,61.2,43.9,29.73,NNE,23,2.0,3.8,53,0.00,,,0.00,WUHU216HW,2013-09-26 17:22:00,
2013-09-26 11:27:00,61.4,44.1,29.73,NNE,23,1.1,4.3,53,0.00,,,0.00,WUHU216HW,2013-09-26 17:27:00,
2013-09-26 11:32:00,61.6,44.7,29.73,NNE,23,3.1,4.3,54,0.00,,,0.00,WUHU216HW,2013-09-26 17:32:00,
2013-09-26 11:37:00,61.9,44.6,29.73,NNE,23,1.1,4.0,53,0.00,,,0.00,WUHU216HW,2013-09-26 17:37:00,
2013-09-26 11:42:00,61.9,44.1,29.73,NNE,23,2.0,4.0,52,0.00,,,0.00,WUHU216HW,2013-09-26 17:42:00,
2013-09-26 11:47:00,61.6,43.7,29.72,NNE,23,1.8,3.4,52,0.00,,,0.00,WUHU216HW,2013-09-26 17:47:00,
2013-09-26 11:52:00,61.9,44.1,29.73,NNE,23,0.9,3.1,52,0.00,,,0.00,WUHU216HW,2013-09-26 17:52:00,
2013-09-26 11:57:00,62.1,44.2,29.72,NNE,23,1.6,2.7,52,0.00,,,0.00,WUHU216HW,2013-09-26 17:57:00,
2013-09-26 12:02:00,62.3,43.9,29.72,North,0,4.7,4.7,51,0.00,,,0.00,WUHU216HW,2013-09-26 18:02:00,
2013-09-26 12:07:00,62.3,43.9,29.72,North,0,2.2,4.7,51,0.00,,,0.00,WUHU216HW,2013-09-26 18:07:00,
2013-09-26 12:12:00,62.5,44.1,29.72,North,0,3.1,4.5,51,0.00,,,0.00,WUHU216HW,2013-09-26 18:12:00,
2013-09-26 12:17:00,62.5,44.1,29.72,North,0,1.8,3.1,51,0.00,,,0.00,WUHU216HW,2013-09-26 18:17:00,
2013-09-26 12:22:00,62.6,44.2,29.72,North,0,3.6,3.6,51,0.00,,,0.00,WUHU216HW,2013-09-26 18:22:00,
2013-09-26 12:27:00,63.0,44.6,29.72,NNE,23,2.5,4.5,51,0.00,,,0.00,WUHU216HW,2013-09-26 18:27:00,
2013-09-26 12:32:00,63.0,43.5,29.72,North,0,1.1,4.5,49,0.00,,,0.00,WUHU216HW,2013-09-26 18:32:00,
2013-09-26 12:37:00,62.8,44.9,29.71,NNE,23,2.5,3.6,52,0.00,,,0.00,WUHU216HW,2013-09-26 18:37:00,
2013-09-26 12:42:00,63.2,44.7,29.71,NNE,23,0.4,4.0,51,0.00,,,0.00,WUHU216HW,2013-09-26 18:42:00,
2013-09-26 12:47:00,63.4,44.4,29.71,NNE,23,4.0,4.0,50,0.00,,,0.00,WUHU216HW,2013-09-26 18:47:00,
2013-09-26 12:52:00,63.7,44.7,29.71,North,0,2.0,4.0,50,0.00,,,0.00,WUHU216HW,2013-09-26 18:52:00,
2013-09-26 12:57:00,63.5,45.0,29.71,NNE,23,4.3,4.3,51,0.00,,,0.00,WUHU216HW,2013-09-26 18:57:00,
2013-09-26 13:02:00,63.5,44.6,29.71,North,0,1.1,4.3,50,0.00,,,0.00,WUHU216HW,2013-09-26 19:02:00,
2013-09-26 13:07:00,63.7,45.2,29.70,North,0,2.5,2.5,51,0.00,,,0.00,WUHU216HW,2013-09-26 19:07:00,
2013-09-26 13:12:00,64.3,45.2,29.70,NNE,23,4.9,4.9,50,0.00,,,0.00,WUHU216HW,2013-09-26 19:12:00,
2013-09-26 13:17:00,64.3,45.2,29.70,North,0,2.7,4.9,50,0.00,,,0.00,WUHU216HW,2013-09-26 19:17:00,
2013-09-26 13:22:00,64.4,45.8,29.70,NNE,23,2.5,4.9,51,0.00,,,0.00,WUHU216HW,2013-09-26 19:22:00,
2013-09-26 13:27:00,65.0,45.9,29.70,NNE,23,0.4,3.8,50,0.00,,,0.00,WUHU216HW,2013-09-26 19:27:00,
2013-09-26 13:32:00,65.2,45.6,29.70,North,0,0.7,2.7,49,0.00,,,0.00,WUHU216HW,2013-09-26 19:32:00,
2013-09-26 13:37:00,65.2,46.1,29.69,North,0,0.4,2.5,50,0.00,,,0.00,WUHU216HW,2013-09-26 19:37:00,
2013-09-26 13:42:00,65.5,46.4,29.69,NNE,23,3.8,3.8,50,0.00,,,0.00,WUHU216HW,2013-09-26 19:42:00,
2013-09-26 13:47:00,65.7,46.0,29.69,North,0,1.3,3.8,49,0.00,,,0.00,WUHU216HW,2013-09-26 19:47:00,
2013-09-26 13:52:00,65.9,46.2,29.69,North,0,2.0,3.1,49,0.00,,,0.00,WUHU216HW,2013-09-26 19:52:00,
2013-09-26 13:57:00,65.9,45.6,29.69,North,0,2.0,2.9,48,0.00,,,0.00,WUHU216HW,2013-09-26 19:57:00,
2013-09-26 14:02:00,65.9,46.2,29.69,NNE,23,1.1,2.9,49,0.00,,,0.00,WUHU216HW,2013-09-26 20:02:00,
2013-09-26 14:07:00,66.1,46.4,29.68,NNE,23,1.3,3.4,49,0.00,,,0.00,WUHU216HW,2013-09-26 20:07:00,
2013-09-26 14:12:00,66.2,45.4,29.69,North,0,0.7,6.0,47,0.00,,,0.00,WUHU216HW,2013-09-26 20:12:00,
2013-09-26 14:17:00,66.1,45.8,29.68,North,0,1.1,6.0,48,0.00,,,0.00,WUHU216HW,2013-09-26 20:17:00,
2013-09-26 14:22:00,66.2,46.0,29.68,North,0,0.2,3.4,48,0.00,,,0.00,WUHU216HW,2013-09-26 20:22:00,
2013-09-26 14:27:00,66.4,46.2,29.68,North,0,1.6,3.1,48,0.00,,,0.00,WUHU216HW,2013-09-26 20:27:00,
2013-09-26 14:32:00,66.8,46.4,29.68,North,0,0.9,4.0,48,0.00,,,0.00,WUHU216HW,2013-09-26 20:32:00,
2013-09-26 14:37:00,67.1,46.2,29.68,North,0,5.6,5.6,47,0.00,,,0.00,WUHU216HW,2013-09-26 20:37:00,
2013-09-26 14:42:00,67.5,47.1,29.68,NNE,23,0.9,5.6,48,0.00,,,0.00,WUHU216HW,2013-09-26 20:42:00,
2013-09-26 14:47:00,67.9,46.8,29.68,NNE,23,3.4,3.4,47,0.00,,,0.00,WUHU216HW,2013-09-26 20:47:00,
2013-09-26 14:52:00,68.0,47.0,29.68,North,0,4.7,4.7,47,0.00,,,0.00,WUHU216HW,2013-09-26 20:52:00,
2013-09-26 14:57:00,67.9,46.8,29.68,NNE,23,2.2,4.7,47,0.00,,,0.00,WUHU216HW,2013-09-26 20:57:00,
2013-09-26 15:02:00,68.0,47.6,29.68,NNE,23,1.1,3.4,48,0.00,,,0.00,WUHU216HW,2013-09-26 21:02:00,
2013-09-26 15:07:00,68.0,47.0,29.67,North,0,1.1,4.0,47,0.00,,,0.00,WUHU216HW,2013-09-26 21:07:00,
2013-09-26 15:12:00,68.6,47.5,29.67,North,0,1.1,4.0,47,0.00,,,0.00,WUHU216HW,2013-09-26 21:12:00,
2013-09-26 15:17:00,69.1,48.0,29.67,North,0,2.2,3.4,47,0.00,,,0.00,WUHU216HW,2013-09-26 21:17:00,
2013-09-26 15:22:00,69.8,48.6,29.67,North,0,2.5,5.1,47,0.00,,,0.00,WUHU216HW,2013-09-26 21:22:00,
2013-09-26 15:27:00,70.4,49.2,29.67,North,0,1.3,5.1,47,0.00,,,0.00,WUHU216HW,2013-09-26 21:27:00,
2013-09-26 15:32:00,70.2,48.3,29.67,North,0,3.4,7.2,46,0.00,,,0.00,WUHU216HW,2013-09-26 21:32:00,
2013-09-26 15:37:00,70.6,48.7,29.67,NNE,23,4.0,7.2,46,0.00,,,0.00,WUHU216HW,2013-09-26 21:37:00,
2013-09-26 15:42:00,70.6,49.2,29.67,North,0,2.5,4.5,47,0.00,,,0.00,WUHU216HW,2013-09-26 21:42:00,
2013-09-26 15:47:00,70.7,48.9,29.67,NNE,23,1.3,4.7,46,0.00,,,0.00,WUHU216HW,2013-09-26 21:47:00,
2013-09-26 15:52:00,71.3,50.0,29.67,North,0,2.5,4.7,47,0.00,,,0.00,WUHU216HW,2013-09-26 21:52:00,
2013-09-26 15:57:00,71.5,49.5,29.67,North,0,2.5,3.4,46,0.00,,,0.00,WUHU216HW,2013-09-26 21:57:00,
2013-09-26 16:02:00,71.8,49.8,29.67,North,0,2.0,3.4,46,0.00,,,0.00,WUHU216HW,2013-09-26 22:02:00,
2013-09-26 16:07:00,72.0,50.0,29.67,NNE,23,1.8,3.4,46,0.00,,,0.00,WUHU216HW,2013-09-26 22:07:00,
2013-09-26 16:12:00,71.6,49.7,29.67,North,0,1.6,3.4,46,0.00,,,0.00,WUHU216HW,2013-09-26 22:12:00,
2013-09-26 16:17:00,72.0,50.0,29.67,North,0,1.1,3.4,46,0.00,,,0.00,WUHU216HW,2013-09-26 22:17:00,
2013-09-26 16:22:00,72.2,49.5,29.66,NNE,23,4.5,4.9,45,0.00,,,0.00,WUHU216HW,2013-09-26 22:22:00,
2013-09-26 16:28:00,71.8,49.2,29.66,North,0,0.4,4.9,45,0.00,,,0.00,WUHU216HW,2013-09-26 22:28:00,
2013-09-26 16:33:00,72.0,49.4,29.66,North,0,1.8,4.7,45,0.00,,,0.00,WUHU216HW,2013-09-26 22:33:00,
2013-09-26 16:38:00,72.4,49.7,29.66,North,0,3.8,5.4,45,0.00,,,0.00,WUHU216HW,2013-09-26 22:38:00,
2013-09-26 16:43:00,72.4,49.7,29.66,North,0,3.1,5.4,45,0.00,,,0.00,WUHU216HW,2013-09-26 22:43:00,
2013-09-26 16:48:00,72.5,49.9,29.66,North,0,2.5,4.3,45,0.00,,,0.00,WUHU216HW,2013-09-26 22:48:00,
2013-09-26 16:53:00,72.9,50.8,29.66,North,0,3.4,3.8,46,0.00,,,0.00,WUHU216HW,2013-09-26 22:53:00,
2013-09-26 16:58:00,72.9,50.2,29.66,North,0,2.5,3.4,45,0.00,,,0.00,WUHU216HW,2013-09-26 22:58:00,
2013-09-26 17:03:00,72.7,50.1,29.66,North,0,3.8,6.5,45,0.00,,,0.00,WUHU216HW,2013-09-26 23:03:00,
2013-09-26 17:08:00,72.5,49.9,29.66,North,0,1.1,6.5,45,0.00,,,0.00,WUHU216HW,2013-09-26 23:08:00,
2013-09-26 17:13:00,72.0,50.0,29.66,NNE,23,1.8,4.0,46,0.00,,,0.00,WUHU216HW,2013-09-26 23:13:00,
2013-09-26 17:18:00,71.5,49.5,29.66,North,0,1.8,3.8,46,0.00,,,0.00,WUHU216HW,2013-09-26 23:18:00,
2013-09-26 17:23:00,70.9,49.0,29.66,North,0,3.4,3.8,46,0.00,,,0.00,WUHU216HW,2013-09-26 23:23:00,
2013-09-26 17:28:00,70.6,49.2,29.66,North,0,2.2,4.5,47,0.00,,,0.00,WUHU216HW,2013-09-26 23:28:00,
2013-09-26 17:33:00,70.0,48.8,29.66,North,0,3.1,4.5,47,0.00,,,0.00,WUHU216HW,2013-09-26 23:33:00,
2013-09-26 17:38:00,69.5,48.3,29.67,North,0,1.8,4.5,47,0.00,,,0.00,WUHU216HW,2013-09-26 23:38:00,
2013-09-26 17:43:00,69.1,48.0,29.67,North,0,3.1,4.5,47,0.00,,,0.00,WUHU216HW,2013-09-26 23:43:00,
2013-09-26 17:48:00,68.8,48.2,29.67,North,0,4.0,4.5,48,0.00,,,0.00,WUHU216HW,2013-09-26 23:48:00,
2013-09-26 17:53:00,68.6,48.1,29.67,North,0,1.1,5.1,48,0.00,,,0.00,WUHU216HW,2013-09-26 23:53:00,
2013-09-26 17:58:00,68.4,48.5,29.67,North,0,1.8,5.4,49,0.00,,,0.00,WUHU216HW,2013-09-26 23:58:00,
2013-09-26 18:03:00,68.0,48.2,29.67,NNE,23,2.5,5.4,49,0.00,,,0.00,WUHU216HW,2013-09-27 00:03:00,
2013-09-26 18:10:00,67.9,48.1,29.67,NNE,23,2.2,4.7,49,0.00,,,0.00,WUHU216HW,2013-09-27 00:10:00,
2013-09-26 18:15:00,67.7,47.9,29.67,NNE,23,2.7,2.7,49,0.00,,,0.00,WUHU216HW,2013-09-27 00:15:00,
2013-09-26 18:20:00,67.3,48.2,29.67,NNE,23,1.8,4.7,50,0.00,,,0.00,WUHU216HW,2013-09-27 00:20:00,
2013-09-26 18:25:00,67.1,48.0,29.67,NNE,23,2.5,4.7,50,0.00,,,0.00,WUHU216HW,2013-09-27 00:25:00,
2013-09-26 18:30:00,66.8,47.6,29.67,NNE,23,2.2,4.5,50,0.00,,,0.00,WUHU216HW,2013-09-27 00:30:00,
2013-09-26 18:35:00,67.0,47.8,29.67,NNE,23,3.8,3.8,50,0.00,,,0.00,WUHU216HW,2013-09-27 00:35:00,
2013-09-26 18:40:00,66.6,47.5,29.67,NNE,23,1.1,3.8,50,0.00,,,0.00,WUHU216HW,2013-09-27 00:40:00,
2013-09-26 18:45:00,66.2,47.6,29.67,NNE,23,1.3,4.0,51,0.00,,,0.00,WUHU216HW,2013-09-27 00:45:00,
2013-09-26 18:50:00,65.9,47.3,29.67,NNE,23,2.0,4.0,51,0.00,,,0.00,WUHU216HW,2013-09-27 00:50:00,
2013-09-26 18:55:00,65.5,47.4,29.68,NNE,23,1.1,2.7,52,0.00,,,0.00,WUHU216HW,2013-09-27 00:55:00,
2013-09-26 19:00:00,65.2,47.1,29.67,NNE,23,1.1,2.7,52,0.00,,,0.00,WUHU216HW,2013-09-27 01:00:00,
2013-09-26 19:05:00,65.2,47.1,29.67,NNE,23,2.0,2.7,52,0.00,,,0.00,WUHU216HW,2013-09-27 01:05:00,
2013-09-26 19:10:00,65.0,47.3,29.67,NNE,23,2.2,2.7,53,0.00,,,0.00,WUHU216HW,2013-09-27 01:10:00,
2013-09-26 19:15:00,64.8,47.2,29.67,NNE,23,2.0,2.7,53,0.00,,,0.00,WUHU216HW,2013-09-27 01:15:00,
2013-09-26 19:20:00,64.6,47.0,29.67,NNE,23,2.2,2.5,53,0.00,,,0.00,WUHU216HW,2013-09-27 01:20:00,
2013-09-26 19:25:00,64.4,47.4,29.68,NNE,23,1.1,2.5,54,0.00,,,0.00,WUHU216HW,2013-09-27 01:25:00,
2013-09-26 19:30:00,64.1,47.0,29.68,NNE,23,0.4,1.6,54,0.00,,,0.00,WUHU216HW,2013-09-27 01:30:00,
2013-09-26 19:35:00,64.1,47.0,29.68,NNE,23,1.8,1.8,54,0.00,,,0.00,WUHU216HW,2013-09-27 01:35:00,
2013-09-26 19:40:00,64.1,47.0,29.68,NNE,23,0.4,1.8,54,0.00,,,0.00,WUHU216HW,2013-09-27 01:40:00,
2013-09-26 19:45:00,64.1,47.0,29.69,NNE,23,0.9,1.1,54,0.00,,,0.00,WUHU216HW,2013-09-27 01:45:00,
2013-09-26 19:50:00,63.9,46.8,29.69,NNE,23,0.0,1.1,54,0.00,,,0.00,WUHU216HW,2013-09-27 01:50:00,
2013-09-26 19:55:00,63.7,46.6,29.69,NNE,23,0.0,1.3,54,0.00,,,0.00,WUHU216HW,2013-09-27 01:55:00,
2013-09-26 20:00:00,63.5,47.0,29.69,NNE,23,0.0,1.3,55,0.00,,,0.00,WUHU216HW,2013-09-27 02:00:00,
2013-09-26 20:05:00,63.4,46.8,29.69,NNE,23,0.0,0.2,55,0.00,,,0.00,WUHU216HW,2013-09-27 02:05:00,
2013-09-26 20:10:00,63.2,47.2,29.70,NNE,23,0.0,0.0,56,0.00,,,0.00,WUHU216HW,2013-09-27 02:10:00,
2013-09-26 20:15:00,62.8,46.8,29.70,NNE,23,0.0,0.0,56,0.00,,,0.00,WUHU216HW,2013-09-27 02:15:00,
2013-09-26 20:20:00,62.5,46.5,29.70,NNE,23,0.0,0.0,56,0.00,,,0.00,WUHU216HW,2013-09-27 02:20:00,
2013-09-26 20:25:00,62.3,46.8,29.70,NNE,23,0.0,0.0,57,0.00,,,0.00,WUHU216HW,2013-09-27 02:25:00,
2013-09-26 20:30:00,61.9,47.0,29.70,NNE,23,0.0,0.0,58,0.00,,,0.00,WUHU216HW,2013-09-27 02:30:00,
2013-09-26 20:35:00,61.7,46.8,29.70,NNE,23,0.0,0.0,58,0.00,,,0.00,WUHU216HW,2013-09-27 02:35:00,
2013-09-26 20:40:00,61.4,46.5,29.70,NNE,23,0.0,0.0,58,0.00,,,0.00,WUHU216HW,2013-09-27 02:40:00,
2013-09-26 20:45:00,61.0,46.6,29.70,NNE,23,0.0,0.0,59,0.00,,,0.00,WUHU216HW,2013-09-27 02:45:00,
2013-09-26 20:50:00,60.7,46.8,29.70,NNE,23,0.0,0.0,60,0.00,,,0.00,WUHU216HW,2013-09-27 02:50:00,
2013-09-26 20:55:00,60.5,46.6,29.70,NNE,23,0.0,0.0,60,0.00,,,0.00,WUHU216HW,2013-09-27 02:55:00,
2013-09-26 21:00:00,60.1,46.7,29.70,NNE,23,0.0,0.0,61,0.00,,,0.00,WUHU216HW,2013-09-27 03:00:00,
2013-09-26 21:05:00,59.9,46.9,29.70,NNE,23,0.0,0.0,62,0.00,,,0.00,WUHU216HW,2013-09-27 03:05:00,
2013-09-26 21:10:00,59.6,46.5,29.70,NNE,23,0.0,0.0,62,0.00,,,0.00,WUHU216HW,2013-09-27 03:10:00,
2013-09-26 21:15:00,59.4,46.4,29.70,NNE,23,0.0,0.0,62,0.00,,,0.00,WUHU216HW,2013-09-27 03:15:00,
2013-09-26 21:20:00,59.4,46.4,29.70,NNE,23,0.0,0.0,62,0.00,,,0.00,WUHU216HW,2013-09-27 03:20:00,
2013-09-26 21:25:00,59.2,46.6,29.70,NNE,23,0.0,0.0,63,0.00,,,0.00,WUHU216HW,2013-09-27 03:25:00,
2013-09-26 21:30:00,59.0,46.5,29.70,NNE,23,0.0,0.0,63,0.00,,,0.00,WUHU216HW,2013-09-27 03:30:00,
2013-09-26 21:36:00,58.9,46.3,29.70,NNE,23,0.0,0.0,63,0.00,,,0.00,WUHU216HW,2013-09-27 03:36:00,
2013-09-26 21:41:00,58.7,46.1,29.70,NNE,23,0.4,0.4,63,0.00,,,0.00,WUHU216HW,2013-09-27 03:41:00,
2013-09-26 21:46:00,58.3,46.2,29.70,NNE,23,0.0,0.4,64,0.00,,,0.00,WUHU216HW,2013-09-27 03:46:00,
2013-09-26 21:51:00,58.1,46.4,29.70,NNE,23,0.2,0.9,65,0.00,,,0.00,WUHU216HW,2013-09-27 03:51:00,
2013-09-26 21:56:00,57.6,45.9,29.70,NNE,23,0.2,0.9,65,0.00,,,0.00,WUHU216HW,2013-09-27 03:56:00,
2013-09-26 22:01:00,57.6,46.3,29.70,NNE,23,1.3,1.8,66,0.00,,,0.00,WUHU216HW,2013-09-27 04:01:00,
2013-09-26 22:06:00,57.2,46.4,29.70,NNE,23,1.1,1.8,67,0.00,,,0.00,WUHU216HW,2013-09-27 04:06:00,
2013-09-26 22:11:00,57.1,47.0,29.70,NNE,23,1.6,1.6,69,0.00,,,0.00,WUHU216HW,2013-09-27 04:11:00,
2013-09-26 22:16:00,56.5,46.9,29.70,NNE,23,1.1,1.6,70,0.00,,,0.00,WUHU216HW,2013-09-27 04:16:00,
2013-09-26 22:21:00,56.5,46.4,29.70,NNE,23,1.1,1.6,69,0.00,,,0.00,WUHU216HW,2013-09-27 04:21:00,
2013-09-26 22:26:00,56.5,46.4,29.70,NNE,23,0.4,1.6,69,0.00,,,0.00,WUHU216HW,2013-09-27 04:26:00,
2013-09-26 22:31:00,56.5,46.1,29.70,NNE,23,0.7,1.6,68,0.00,,,0.00,WUHU216HW,2013-09-27 04:31:00,
2013-09-26 22:36:00,56.7,46.3,29.70,NNE,23,0.9,1.1,68,0.00,,,0.00,WUHU216HW,2013-09-27 04:36:00,
2013-09-26 22:41:00,56.3,45.9,29.70,NNE,23,0.9,1.1,68,0.00,,,0.00,WUHU216HW,2013-09-27 04:41:00,
2013-09-26 22:46:00,56.3,45.9,29.70,NNE,23,0.4,1.1,68,0.00,,,0.00,WUHU216HW,2013-09-27 04:46:00,
2013-09-26 22:51:00,56.3,46.3,29.70,NNE,23,0.4,1.1,69,0.00,,,0.00,WUHU216HW,2013-09-27 04:51:00,
2013-09-26 22:56:00,56.3,46.3,29.70,NNE,23,0.0,0.7,69,0.00,,,0.00,WUHU216HW,2013-09-27 04:56:00,
2013-09-26 23:01:00,56.2,46.2,29.70,NNE,23,0.0,0.4,69,0.00,,,0.00,WUHU216HW,2013-09-27 05:01:00,
2013-09-26 23:06:00,56.0,46.0,29.70,NNE,23,0.0,0.0,69,0.00,,,0.00,WUHU216HW,2013-09-27 05:06:00,
2013-09-26 23:11:00,55.8,45.8,29.70,NNE,23,0.0,0.7,69,0.00,,,0.00,WUHU216HW,2013-09-27 05:11:00,
2013-09-26 23:16:00,55.8,46.3,29.70,NNE,23,0.4,0.7,70,0.00,,,0.00,WUHU216HW,2013-09-27 05:16:00,
2013-09-26 23:21:00,55.3,45.7,29.70,NNE,23,0.7,1.1,70,0.00,,,0.00,WUHU216HW,2013-09-27 05:21:00,
2013-09-26 23:26:00,55.1,45.9,29.70,NNE,23,0.0,1.1,71,0.00,,,0.00,WUHU216HW,2013-09-27 05:26:00,
2013-09-26 23:31:00,54.9,46.1,29.70,NNE,23,0.0,0.7,72,0.00,,,0.00,WUHU216HW,2013-09-27 05:31:00,
2013-09-26 23:36:00,54.7,46.3,29.70,NNE,23,0.4,1.3,73,0.00,,,0.00,WUHU216HW,2013-09-27 05:36:00,
2013-09-26 23:41:00,54.4,45.9,29.70,NNE,23,1.6,1.6,73,0.00,,,0.00,WUHU216HW,2013-09-27 05:41:00,
2013-09-26 23:46:00,54.0,45.9,29.70,NNE,23,1.1,1.6,74,0.00,,,0.00,WUHU216HW,2013-09-27 05:46:00,
2013-09-26 23:51:00,54.0,45.9,29.70,NNE,23,1.6,1.8,74,0.00,,,0.00,WUHU216HW,2013-09-27 05:51:00,
2013-09-26 23:56:00,53.8,45.7,29.70,NNE,23,1.6,2.2,74,0.00,,,0.00,WUHU216HW,2013-09-27 05:56:00,